Regional Weather Roundup
Issued by NWS Midland/Odessa, TX

Home | Current Version | Previous Version | Text Only | Print | Product List | Glossary On
Versions: 1 2 3 4 5 6 7 8 9 10 11 12 13 14 15 16 17 18 19 20 21 22 23 24 25 26 27 28 29 30 31 32 33 34 35 36 37 38 39 40 41 42 43 44 45 46 47 48 49 50
000
ASUS44 KMAF 270210
RWRMAF
MIDLAND AREA WEATHER ROUNDUP
NATIONAL WEATHER SERVICE MIDLAND TX
900 PM CDT MON JUN 26 2017

...IN SOUTHWEST TEXAS AND SOUTHEAST NEW MEXICO...

CITY           SKY/WX    TMP DP  RH WIND       PRES   REMARKS
ALPINE         PTCLDY    80  55  41 E3        30.18R
ANDREWS        CLOUDY    75  64  69 E7        30.10S HAZE
ARTESIA        CLEAR     84  57  39 SE5       30.08R
BIG SPRING     CLEAR     76  63  65 E8        30.09S
CARLSBAD       PTCLDY    82  63  52 SE5       30.04S
DRYDEN           N/A     89  60  37 E10       29.99R
FORT STOCKTON  CLEAR     85  58  39 NE13      30.04S
GUAD PASS      CLEAR     76  54  46 MISG        N/A
HOBBS          CLEAR     75  64  69 E13       30.12R
MARFA          CLOUDY    73  60  63 W3        30.18S
MIDLAND AIRPK  PTCLDY    79  63  58 E8        30.07F
MIDLAND INTL   MOCLDY    79  63  57 E8        30.07F
ODESSA         PTCLDY    78  65  63 E9        30.08F
PECOS          CLEAR     87  59  38 E10       30.02R
PRESIDIO       FAIR      88  58  36 NE9       30.02R
SEMINOLE       CLEAR     76  61  60 E7        30.11S
SNYDER         PTCLDY    74  68  82 SE7       30.09R
WINK           CLEAR     82  65  56 E15       30.03R
$$
...OTHER STATIONS IN TEXAS...

CITY           SKY/WX    TMP DP  RH WIND       PRES   REMARKS
ABILENE        CLOUDY    77  68  73 SE10      30.05S
AMARILLO       CLEAR     76  58  53 S9        30.12R
AUSTIN         TSTM      76  74  93 SW7       30.02R FOG
BROWNSVILLE    PTCLDY    80  73  79 E6        29.94S
CORPUS CHRISTI CLOUDY    84  74  71 E8        29.97R
DALLAS FTW     CLOUDY    82  70  66 SE7       30.01R
DEL RIO        CLOUDY    83  68  60 NE16G22   29.96R
EL PASO        MOCLDY    90  54  29 N5        30.05R
HOUSTON INT    CLOUDY    78  72  81 SE7       30.00S
LUBBOCK        PTCLDY    78  61  55 S7        30.10S
SAN ANGELO     CLOUDY    73  67  81 SE8       30.05F
SAN ANTONIO    LGT RAIN  81  69  67 E12       30.02R
WACO           MOCLDY    82  73  74 E6        30.01R
WICHITA FALLS  NOT AVBL
$$
...OTHER LOCATIONS IN NEW MEXICO...

CITY           SKY/WX    TMP DP  RH WIND       PRES   REMARKS
ALAMOGORDO     CLOUDY    86  48  26 W6        30.09R
ALBUQUERQUE    CLOUDY    71  51  49 E29G37    30.17F
CANNON AFB     CLEAR     74  63  67 SE13      30.17R
CLOVIS         CLEAR     75  57  53 SE12      30.16R
HOLLOMAN AFB   CLEAR     88  53  29 NW15      30.09R
ROSWELL        CLOUDY    84  56  38 S6        30.08R
RUIDOSO        CLOUDY    66  57  72 E10       30.35R
SANTA FE       CLOUDY    70  46  42 CALM      30.23F
TRUTH OR CONSE PTCLDY    76  50  40 W6        30.13F
TUCUMCARI      PTCLDY    82  55  39 S12       30.07R
$$




USA.gov is the U.S. government's official web portal to all federal, state and local government web resources and services.